Time,TemperatureF,DewpointF,PressureIn,WindDirection,WindDirectionDegrees,WindSpeedMPH,WindSpeedGustMPH,Humidity,HourlyPrecipIn,Conditions,Clouds,dailyrainin,SoftwareType,DateUTC
2013-01-02 12:30:00,42.6,37.8,30.01,East,95,0.0,0.0,83,0.00,,,0.00,Wunderground v.1.15,2013-01-02 17:30:00,
2013-01-02 12:31:00,42.6,37.8,30.01,East,95,0.0,0.0,83,0.00,,,0.00,Wunderground v.1.15,2013-01-02 17:31:00,
2013-01-02 12:32:00,42.6,37.8,30.00,East,90,0.0,0.0,83,0.00,,,0.00,Wunderground v.1.15,2013-01-02 17:32:00,
2013-01-02 12:37:00,42.8,38.3,30.00,East,89,0.0,0.0,84,0.00,,,0.00,Wunderground v.1.15,2013-01-02 17:37:00,
2013-01-02 12:42:00,42.9,38.4,30.00,East,89,0.0,0.0,84,0.00,,,0.00,Wunderground v.1.15,2013-01-02 17:42:00,
2013-01-02 12:47:00,43.1,37.7,30.00,East,83,0.0,0.0,81,0.00,,,0.00,Wunderground v.1.15,2013-01-02 17:47:00,
2013-01-02 12:52:00,43.3,38.8,30.00,East,85,0.0,0.0,84,0.00,,,0.00,Wunderground v.1.15,2013-01-02 17:52:00,
2013-01-02 12:58:00,43.5,39.0,30.00,East,80,0.0,0.0,84,0.00,,,0.00,Wunderground v.1.15,2013-01-02 17:58:00,
2013-01-02 13:03:00,43.5,38.4,29.99,East,80,0.0,0.0,82,0.00,,,0.00,Wunderground v.1.15,2013-01-02 18:03:00,
2013-01-02 13:08:00,43.5,38.1,29.99,East,80,0.0,0.0,81,0.00,,,0.00,Wunderground v.1.15,2013-01-02 18:08:00,
2013-01-02 13:13:00,43.5,38.1,29.99,ENE,76,0.0,0.0,81,0.00,,,0.00,Wunderground v.1.15,2013-01-02 18:13:00,
2013-01-02 13:18:00,43.6,38.2,29.99,ENE,76,0.0,0.0,81,0.00,,,0.00,Wunderground v.1.15,2013-01-02 18:18:00,
2013-01-02 13:23:00,43.9,37.8,29.99,ENE,76,0.0,0.0,79,0.00,,,0.00,Wunderground v.1.15,2013-01-02 18:23:00,
2013-01-02 13:28:00,43.9,37.8,29.99,ENE,71,0.0,0.0,79,0.00,,,0.00,Wunderground v.1.15,2013-01-02 18:28:00,
2013-01-02 13:33:00,43.8,38.0,29.99,ENE,71,0.0,0.0,80,0.00,,,0.00,Wunderground v.1.15,2013-01-02 18:33:00,
2013-01-02 13:38:00,43.8,38.3,29.99,ENE,71,0.0,0.0,81,0.00,,,0.00,Wunderground v.1.15,2013-01-02 18:38:00,
2013-01-02 13:44:00,43.8,38.0,29.99,ENE,71,0.0,0.0,80,0.00,,,0.00,Wunderground v.1.15,2013-01-02 18:44:00,
2013-01-02 13:49:00,43.9,38.1,29.99,ENE,71,0.0,0.0,80,0.00,,,0.00,Wunderground v.1.15,2013-01-02 18:49:00,
2013-01-02 13:56:00,43.8,37.7,29.99,ENE,71,0.0,0.0,79,0.00,,,0.00,Wunderground v.1.15,2013-01-02 18:56:00,
2013-01-02 14:01:00,43.6,37.5,29.99,ENE,71,0.0,0.0,79,0.00,,,0.00,Wunderground v.1.15,2013-01-02 19:01:00,
2013-01-02 14:06:00,43.6,37.2,29.98,ENE,71,0.0,0.0,78,0.00,,,0.00,Wunderground v.1.15,2013-01-02 19:06:00,
2013-01-02 14:11:00,43.6,37.8,29.98,ENE,71,0.0,0.0,80,0.00,,,0.00,Wunderground v.1.15,2013-01-02 19:11:00,
2013-01-02 14:16:00,43.8,38.3,29.98,ENE,71,0.0,0.0,81,0.00,,,0.00,Wunderground v.1.15,2013-01-02 19:16:00,
2013-01-02 14:22:00,43.9,38.4,29.98,ENE,71,0.0,0.0,81,0.00,,,0.00,Wunderground v.1.15,2013-01-02 19:22:00,
2013-01-02 14:27:00,44.1,38.6,29.98,ENE,71,0.0,0.0,81,0.00,,,0.00,Wunderground v.1.15,2013-01-02 19:27:00,
2013-01-02 14:32:00,44.1,38.6,29.98,ENE,71,0.0,0.0,81,0.00,,,0.00,Wunderground v.1.15,2013-01-02 19:32:00,
2013-01-02 14:37:00,44.2,39.1,29.98,ENE,71,0.0,0.0,82,0.00,,,0.00,Wunderground v.1.15,2013-01-02 19:37:00,
2013-01-02 14:42:00,44.2,38.4,29.98,ENE,71,0.0,0.0,80,0.00,,,0.00,Wunderground v.1.15,2013-01-02 19:42:00,
2013-01-02 14:47:00,44.2,39.4,29.98,ENE,71,0.0,0.0,83,0.00,,,0.00,Wunderground v.1.15,2013-01-02 19:47:00,
2013-01-02 14:53:00,44.2,38.7,29.98,ENE,71,0.0,0.0,81,0.00,,,0.00,Wunderground v.1.15,2013-01-02 19:53:00,
2013-01-02 14:58:00,44.2,38.7,29.98,ENE,71,0.0,0.0,81,0.00,,,0.00,Wunderground v.1.15,2013-01-02 19:58:00,
2013-01-02 15:03:00,44.1,38.6,29.98,ENE,71,0.0,0.0,81,0.00,,,0.00,Wunderground v.1.15,2013-01-02 20:03:00,
2013-01-02 15:08:00,44.1,38.6,29.98,ENE,71,0.0,0.0,81,0.00,,,0.00,Wunderground v.1.15,2013-01-02 20:08:00,
2013-01-02 15:13:00,44.2,38.7,29.98,ENE,71,0.0,0.0,81,0.00,,,0.00,Wunderground v.1.15,2013-01-02 20:13:00,
2013-01-02 15:18:00,44.1,38.3,29.99,ENE,71,0.0,0.0,80,0.00,,,0.00,Wunderground v.1.15,2013-01-02 20:18:00,
2013-01-02 15:23:00,43.9,37.8,29.99,ENE,71,0.0,0.0,79,0.00,,,0.00,Wunderground v.1.15,2013-01-02 20:23:00,
2013-01-02 15:29:00,43.6,37.8,29.99,ENE,71,0.0,0.0,80,0.00,,,0.00,Wunderground v.1.15,2013-01-02 20:29:00,
2013-01-02 15:34:00,43.5,37.7,29.98,ENE,66,0.0,0.0,80,0.00,,,0.00,Wunderground v.1.15,2013-01-02 20:34:00,
2013-01-02 15:39:00,43.3,37.5,29.98,ENE,64,0.0,0.0,80,0.00,,,0.00,Wunderground v.1.15,2013-01-02 20:39:00,
2013-01-02 15:46:00,43.3,37.9,29.98,ENE,62,0.0,0.0,81,0.00,,,0.00,Wunderground v.1.15,2013-01-02 20:46:00,
2013-01-02 15:51:00,43.2,37.8,29.98,ENE,62,0.0,0.0,81,0.00,,,0.00,Wunderground v.1.15,2013-01-02 20:51:00,
2013-01-02 15:56:00,43.2,37.8,29.98,ENE,62,0.0,0.0,81,0.00,,,0.00,Wunderground v.1.15,2013-01-02 20:56:00,
2013-01-02 16:01:00,43.2,38.1,30.00,ENE,62,0.0,0.0,82,0.00,,,0.00,Wunderground v.1.15,2013-01-02 21:01:00,
2013-01-02 16:07:00,43.1,38.0,30.00,ENE,62,0.0,0.0,82,0.00,,,0.00,Wunderground v.1.15,2013-01-02 21:07:00,
2013-01-02 16:12:00,43.1,38.0,30.00,ENE,62,0.0,0.0,82,0.00,,,0.00,Wunderground v.1.15,2013-01-02 21:12:00,
2013-01-02 16:17:00,42.9,37.8,30.01,ENE,62,0.0,0.0,82,0.00,,,0.00,Wunderground v.1.15,2013-01-02 21:17:00,
2013-01-02 16:23:00,42.8,38.0,30.01,ENE,62,0.0,0.0,83,0.00,,,0.00,Wunderground v.1.15,2013-01-02 21:23:00,
2013-01-02 16:28:00,42.6,37.8,30.01,ENE,66,0.0,0.0,83,0.00,,,0.00,Wunderground v.1.15,2013-01-02 21:28:00,
2013-01-02 16:33:00,42.3,37.5,30.00,ENE,65,0.0,0.0,83,0.00,,,0.00,Wunderground v.1.15,2013-01-02 21:33:00,
2013-01-02 16:38:00,42.1,37.6,30.00,ENE,65,0.0,0.0,84,0.00,,,0.00,Wunderground v.1.15,2013-01-02 21:38:00,
2013-01-02 16:43:00,41.9,37.7,30.00,ENE,65,0.0,0.0,85,0.00,,,0.00,Wunderground v.1.15,2013-01-02 21:43:00,
2013-01-02 16:48:00,41.8,37.3,30.01,ENE,65,0.0,0.0,84,0.00,,,0.00,Wunderground v.1.15,2013-01-02 21:48:00,
2013-01-02 16:54:00,41.9,36.5,30.01,ENE,65,0.0,0.0,81,0.00,,,0.00,Wunderground v.1.15,2013-01-02 21:54:00,
2013-01-02 16:59:00,42.1,36.1,30.01,ENE,65,0.0,0.0,79,0.00,,,0.00,Wunderground v.1.15,2013-01-02 21:59:00,
2013-01-02 17:06:00,42.3,35.9,30.03,East,97,0.0,0.0,78,0.00,,,0.00,Wunderground v.1.15,2013-01-02 22:06:00,
2013-01-02 17:11:00,42.5,37.4,30.03,East,97,0.0,0.0,82,0.00,,,0.00,Wunderground v.1.15,2013-01-02 22:11:00,
2013-01-02 17:17:00,42.2,37.7,30.00,East,97,0.0,0.0,84,0.00,,,0.00,Wunderground v.1.15,2013-01-02 22:17:00,
2013-01-02 17:22:00,41.9,37.7,30.00,East,97,0.0,0.0,85,0.00,,,0.00,Wunderground v.1.15,2013-01-02 22:22:00,
2013-01-02 17:27:00,41.8,37.3,30.00,East,97,0.0,0.0,84,0.00,,,0.00,Wunderground v.1.15,2013-01-02 22:27:00,
2013-01-02 17:33:00,41.8,36.7,30.03,East,97,0.0,0.0,82,0.00,,,0.00,Wunderground v.1.15,2013-01-02 22:33:00,
2013-01-02 17:39:00,41.9,36.8,30.03,East,97,0.0,0.0,82,0.00,,,0.00,Wunderground v.1.15,2013-01-02 22:39:00,
2013-01-02 17:46:00,41.9,37.1,30.03,East,97,0.0,0.0,83,0.00,,,0.00,Wunderground v.1.15,2013-01-02 22:46:00,
2013-01-02 17:51:00,41.9,37.1,30.04,East,97,0.0,0.0,83,0.00,,,0.00,Wunderground v.1.15,2013-01-02 22:51:00,
2013-01-02 17:56:00,41.6,37.4,30.04,East,97,0.0,0.0,85,0.00,,,0.00,Wunderground v.1.15,2013-01-02 22:56:00,
2013-01-02 18:01:00,41.3,37.7,30.03,East,93,0.0,0.0,87,0.00,,,0.00,Wunderground v.1.15,2013-01-02 23:01:00,
2013-01-02 18:06:00,40.9,37.3,30.03,East,93,0.0,0.0,87,0.00,,,0.00,Wunderground v.1.15,2013-01-02 23:06:00,
2013-01-02 18:11:00,40.6,37.6,30.03,East,92,0.0,0.0,89,0.00,,,0.00,Wunderground v.1.15,2013-01-02 23:11:00,
2013-01-02 18:17:00,40.5,37.5,30.03,East,92,0.0,0.0,89,0.00,,,0.00,Wunderground v.1.15,2013-01-02 23:17:00,
2013-01-02 18:22:00,40.3,37.0,30.03,East,90,0.0,0.0,88,0.00,,,0.00,Wunderground v.1.15,2013-01-02 23:22:00,
2013-01-02 18:28:00,40.5,36.3,30.03,East,90,0.0,0.0,85,0.00,,,0.00,Wunderground v.1.15,2013-01-02 23:28:00,
2013-01-02 18:33:00,40.8,36.6,30.05,East,90,0.0,0.0,85,0.00,,,0.00,Wunderground v.1.15,2013-01-02 23:33:00,
2013-01-02 18:38:00,40.5,37.2,30.05,ENE,71,0.0,0.0,88,0.00,,,0.00,Wunderground v.1.15,2013-01-02 23:38:00,
2013-01-02 18:43:00,40.2,37.5,30.05,ENE,66,1.0,2.0,90,0.00,,,0.00,Wunderground v.1.15,2013-01-02 23:43:00,
2013-01-02 18:48:00,39.8,37.4,30.05,NE,56,1.0,2.0,91,0.00,,,0.00,Wunderground v.1.15,2013-01-02 23:48:00,
2013-01-02 18:56:00,39.5,37.1,30.05,NE,56,0.0,2.0,91,0.00,,,0.00,Wunderground v.1.15,2013-01-02 23:56:00,
2013-01-02 19:01:00,39.2,36.8,30.05,ENE,72,0.0,1.0,91,0.00,,,0.00,Wunderground v.1.15,2013-01-03 00:01:00,
2013-01-02 19:06:00,38.9,36.8,30.05,ENE,64,1.0,2.0,92,0.00,,,0.00,Wunderground v.1.15,2013-01-03 00:06:00,
2013-01-02 19:11:00,38.8,36.7,30.05,ENE,64,0.0,2.0,92,0.00,,,0.00,Wunderground v.1.15,2013-01-03 00:11:00,
2013-01-02 19:16:00,38.8,36.7,30.07,NNE,18,0.0,1.0,92,0.00,,,0.00,Wunderground v.1.15,2013-01-03 00:16:00,
2013-01-02 19:21:00,39.1,37.0,30.07,North,0,0.0,1.0,92,0.00,,,0.00,Wunderground v.1.15,2013-01-03 00:21:00,
2013-01-02 19:27:00,39.3,36.9,30.07,North,0,0.0,0.0,91,0.00,,,0.00,Wunderground v.1.15,2013-01-03 00:27:00,
2013-01-02 19:34:00,38.9,36.5,30.07,NE,41,0.0,0.0,91,0.00,,,0.00,Wunderground v.1.15,2013-01-03 00:34:00,
2013-01-02 19:39:00,38.9,36.8,30.07,NE,41,0.0,0.0,92,0.00,,,0.00,Wunderground v.1.15,2013-01-03 00:39:00,
2013-01-02 19:44:00,38.9,36.8,30.07,NE,41,0.0,0.0,92,0.00,,,0.00,Wunderground v.1.15,2013-01-03 00:44:00,
2013-01-02 19:49:00,38.9,36.8,30.08,NE,41,0.0,0.0,92,0.00,,,0.00,Wunderground v.1.15,2013-01-03 00:49:00,
2013-01-02 19:55:00,38.6,36.5,30.08,NE,41,0.0,0.0,92,0.00,,,0.00,Wunderground v.1.15,2013-01-03 00:55:00,
2013-01-02 20:00:00,38.3,36.5,30.08,NE,52,0.0,0.0,93,0.00,,,0.00,Wunderground v.1.15,2013-01-03 01:00:00,
2013-01-02 20:06:00,38.2,36.4,30.07,NE,51,0.0,0.0,93,0.00,,,0.00,Wunderground v.1.15,2013-01-03 01:06:00,
2013-01-02 20:11:00,38.2,36.4,30.07,NE,51,0.0,0.0,93,0.00,,,0.00,Wunderground v.1.15,2013-01-03 01:11:00,
2013-01-02 20:16:00,38.3,36.5,30.08,NE,51,0.0,0.0,93,0.00,,,0.00,Wunderground v.1.15,2013-01-03 01:16:00,
2013-01-02 20:22:00,38.3,36.5,30.08,NE,51,0.0,0.0,93,0.00,,,0.00,Wunderground v.1.15,2013-01-03 01:22:00,
2013-01-02 20:27:00,38.5,36.7,30.08,NE,41,0.0,0.0,93,0.00,,,0.00,Wunderground v.1.15,2013-01-03 01:27:00,
2013-01-02 20:32:00,38.3,36.5,30.10,NE,41,0.0,0.0,93,0.00,,,0.00,Wunderground v.1.15,2013-01-03 01:32:00,
2013-01-02 20:38:00,38.3,36.5,30.10,NE,41,0.0,0.0,93,0.00,,,0.00,Wunderground v.1.15,2013-01-03 01:38:00,
2013-01-02 20:43:00,38.3,36.5,30.10,NE,41,0.0,0.0,93,0.00,,,0.00,Wunderground v.1.15,2013-01-03 01:43:00,
2013-01-02 20:48:00,38.3,36.5,30.10,NE,41,0.0,0.0,93,0.00,,,0.00,Wunderground v.1.15,2013-01-03 01:48:00,
2013-01-02 20:53:00,38.2,36.4,30.10,NE,41,0.0,0.0,93,0.00,,,0.00,Wunderground v.1.15,2013-01-03 01:53:00,
2013-01-02 20:58:00,38.2,36.4,30.10,NE,41,0.0,0.0,93,0.00,,,0.00,Wunderground v.1.15,2013-01-03 01:58:00,
2013-01-02 21:03:00,38.2,36.4,30.09,NE,41,0.0,0.0,93,0.00,,,0.00,Wunderground v.1.15,2013-01-03 02:03:00,
2013-01-02 21:08:00,38.2,36.4,30.09,NE,41,0.0,0.0,93,0.00,,,0.00,Wunderground v.1.15,2013-01-03 02:08:00,
2013-01-02 21:13:00,38.2,36.1,30.09,NE,41,0.0,0.0,92,0.00,,,0.00,Wunderground v.1.15,2013-01-03 02:13:00,
2013-01-02 21:18:00,38.3,36.5,30.09,NW,319,0.0,0.0,93,0.00,,,0.00,Wunderground v.1.15,2013-01-03 02:18:00,
2013-01-02 21:23:00,38.5,36.7,30.09,WNW,296,0.0,1.0,93,0.00,,,0.00,Wunderground v.1.15,2013-01-03 02:23:00,
2013-01-02 21:29:00,38.8,36.9,30.09,WNW,289,2.0,2.0,93,0.00,,,0.00,Wunderground v.1.15,2013-01-03 02:29:00,
2013-01-02 21:36:00,38.6,36.8,30.10,West,278,2.0,2.0,93,0.00,,,0.00,Wunderground v.1.15,2013-01-03 02:36:00,
2013-01-02 21:41:00,38.6,37.0,30.10,West,278,1.0,3.0,94,0.00,,,0.00,Wunderground v.1.15,2013-01-03 02:41:00,
2013-01-02 21:46:00,38.6,37.0,30.10,West,277,0.0,1.0,94,0.00,,,0.00,Wunderground v.1.15,2013-01-03 02:46:00,
2013-01-02 21:51:00,38.8,37.5,30.10,West,271,0.0,1.0,95,0.00,,,0.00,Wunderground v.1.15,2013-01-03 02:51:00,
2013-01-02 21:56:00,38.6,37.0,30.10,West,261,0.0,0.0,94,0.00,,,0.00,Wunderground v.1.15,2013-01-03 02:56:00,
2013-01-02 22:01:00,38.6,37.0,30.11,WSW,237,0.0,0.0,94,0.00,,,0.00,Wunderground v.1.15,2013-01-03 03:01:00,
2013-01-02 22:06:00,38.5,36.9,30.11,SSW,209,0.0,0.0,94,0.00,,,0.00,Wunderground v.1.15,2013-01-03 03:06:00,
2013-01-02 22:11:00,38.5,36.9,30.11,WSW,239,0.0,0.0,94,0.00,,,0.00,Wunderground v.1.15,2013-01-03 03:11:00,
2013-01-02 22:17:00,38.8,37.5,30.09,WSW,247,0.0,0.0,95,0.00,,,0.00,Wunderground v.1.15,2013-01-03 03:17:00,
2013-01-02 22:22:00,39.2,37.9,30.09,WSW,257,0.0,0.0,95,0.00,,,0.00,Wunderground v.1.15,2013-01-03 03:22:00,
2013-01-02 22:27:00,39.5,38.2,30.09,WSW,257,0.0,0.0,95,0.00,,,0.00,Wunderground v.1.15,2013-01-03 03:27:00,
2013-01-02 22:32:00,39.9,38.6,30.08,WSW,257,0.0,0.0,95,0.00,,,0.00,Wunderground v.1.15,2013-01-03 03:32:00,
2013-01-02 22:39:00,39.9,38.3,30.08,West,274,0.0,0.0,94,0.00,,,0.00,Wunderground v.1.15,2013-01-03 03:39:00,
2013-01-02 22:44:00,40.3,39.0,30.08,West,278,1.0,1.0,95,0.00,,,0.00,Wunderground v.1.15,2013-01-03 03:44:00,
2013-01-02 22:50:00,40.8,39.5,30.08,West,272,1.0,4.0,95,0.00,,,0.00,Wunderground v.1.15,2013-01-03 03:50:00,
2013-01-02 22:56:00,41.1,39.8,30.08,SW,236,0.0,2.0,95,0.00,,,0.00,Wunderground v.1.15,2013-01-03 03:56:00,
2013-01-02 23:01:00,41.1,39.5,30.07,West,277,2.0,3.0,94,0.00,,,0.00,Wunderground v.1.15,2013-01-03 04:01:00,
2013-01-02 23:07:00,40.9,39.3,30.07,WNW,289,0.0,1.0,94,0.00,,,0.00,Wunderground v.1.15,2013-01-03 04:07:00,
2013-01-02 23:12:00,41.1,39.8,30.07,WSW,253,0.0,2.0,95,0.00,,,0.00,Wunderground v.1.15,2013-01-03 04:12:00,
2013-01-02 23:17:00,41.1,39.5,30.06,WNW,294,1.0,2.0,94,0.00,,,0.00,Wunderground v.1.15,2013-01-03 04:17:00,
2013-01-02 23:22:00,40.8,39.2,30.06,West,277,0.0,2.0,94,0.00,,,0.00,Wunderground v.1.15,2013-01-03 04:22:00,
2013-01-02 23:28:00,40.9,39.6,30.06,WSW,256,0.0,1.0,95,0.00,,,0.00,Wunderground v.1.15,2013-01-03 04:28:00,
2013-01-02 23:33:00,40.9,39.6,30.06,West,260,0.0,2.0,95,0.00,,,0.00,Wunderground v.1.15,2013-01-03 04:33:00,
2013-01-02 23:38:00,40.9,39.3,30.06,WSW,251,1.0,1.0,94,0.00,,,0.00,Wunderground v.1.15,2013-01-03 04:38:00,
2013-01-02 23:43:00,40.8,39.2,30.06,SW,236,0.0,1.0,94,0.00,,,0.00,Wunderground v.1.15,2013-01-03 04:43:00,
2013-01-02 23:48:00,40.9,39.3,30.06,SSW,210,0.0,0.0,94,0.00,,,0.00,Wunderground v.1.15,2013-01-03 04:48:00,
2013-01-02 23:53:00,40.8,38.9,30.06,SSW,210,0.0,0.0,93,0.00,,,0.00,Wunderground v.1.15,2013-01-03 04:53:00,
2013-01-02 23:59:00,40.8,39.2,30.06,SSW,199,0.0,0.0,94,0.00,,,0.00,Wunderground v.1.15,2013-01-03 04:59:00,